Weather History for KPNE - May, 2013

Change the Weather History Date:

Wednesday, May 8, 2013

  Actual Average Record
Temperature  
Mean Temperature 66 °F -  
Max Temperature 73 °F 69 °F 91 °F (2000)
Min Temperature 59 °F 48 °F 37 °F (1997)
Cooling Degree Days 1    
Growing Degree Days 16 (Base 50)    
Moisture  
Dew Point 58 °F    
Average Humidity 83    
Maximum Humidity 94    
Minimum Humidity 44    
Precipitation  
Precipitation 0.20 in - - ()
Sea Level Pressure  
Sea Level Pressure 30.00 in    
Wind  
Wind Speed 8 mph (East)    
Max Wind Speed 13 mph    
Max Gust Speed -    
Visibility 9 miles    
Events Rain , Thunderstorm    
Averages and records for this station are not official NWS values.
T = Trace of Precipitation, MM = Missing Value Source: NWS Daily Summary

Daily Weather History Graph

Daily Weather History Graph

Search for Another Location

Airport or City:

Trip Planner

Search our weather history database for the weather conditions in past years. The results will help you decide how hot, cold, wet, or windy it might be!

Date:

Astronomy

May. 08, 2013 Rise Set
Actual Time 5:51 AM EDT 8:02 PM EDT
Civil Twilight 5:21 AM EDT 8:32 PM EDT
Nautical Twilight 4:44 AM EDT 9:09 PM EDT
Astronomical Twilight 4:04 AM EDT 9:49 PM EDT
Moon 4:58 AM EDT (5/8) 6:58 PM EDT (5/8)
Length of Visible Light 15h 10m
Length of Day
14h 10m
Waning Crescent, 2% of the Moon is Illuminated
May 8
Waning Crescent
May 9
New
May 18
First Quarter
May 25
Full
May 31
Last Quarter

Hourly Weather History & Observations

Time (EDT) Temp. Dew Point Humidity Pressure Visibility Wind Dir Wind Speed Gust Speed Precip Events Conditions
12:07 AM 60.8 °F 55.4 °F 82% 30.07 in 10.0 mi East 9.2 mph - N/A   Overcast
12:54 AM 60.1 °F 55.9 °F 86% 30.06 in 10.0 mi East 9.2 mph - N/A   Overcast
1:06 AM 59.0 °F 55.4 °F 88% 30.05 in 10.0 mi East 9.2 mph - N/A   Overcast
1:39 AM 60.8 °F 57.2 °F 88% 30.04 in 10.0 mi ENE 6.9 mph - N/A   Overcast
1:54 AM 59.0 °F 57.0 °F 93% 30.04 in 10.0 mi East 8.1 mph - N/A   Overcast
2:54 AM 60.1 °F 57.9 °F 93% 30.02 in 10.0 mi East 8.1 mph - N/A   Overcast
3:54 AM 60.1 °F 57.9 °F 93% 30.01 in 10.0 mi ENE 6.9 mph - N/A   Overcast
4:54 AM 61.0 °F 59.0 °F 93% 30.00 in 10.0 mi East 6.9 mph - N/A   Overcast
5:54 AM 61.0 °F 59.0 °F 93% 30.01 in 7.0 mi East 9.2 mph - 0.02 in Rain Light Rain
6:33 AM 60.8 °F 59.0 °F 94% 30.01 in 10.0 mi East 10.4 mph - 0.02 in Rain , Thunderstorm Light Thunderstorms and Rain
6:54 AM 61.0 °F 59.0 °F 93% 30.01 in 10.0 mi ENE 9.2 mph - 0.02 in   Overcast
7:54 AM 62.1 °F 59.0 °F 90% 30.01 in 10.0 mi East 11.5 mph - N/A   Overcast
8:54 AM 61.0 °F 59.0 °F 93% 30.01 in 2.0 mi East 10.4 mph - 0.02 in Rain Light Rain
9:54 AM 60.1 °F 57.9 °F 93% 30.02 in 2.0 mi East 8.1 mph - 0.07 in Rain Rain
10:04 AM 60.8 °F 57.2 °F 88% 30.02 in 2.0 mi East 8.1 mph - 0.01 in Rain Light Rain
10:19 AM 60.8 °F 59.0 °F 94% 30.01 in 2.0 mi ENE 12.7 mph - 0.01 in   Overcast
10:34 AM 62.6 °F 60.8 °F 94% 30.02 in 10.0 mi ENE 8.1 mph - 0.01 in   Overcast
10:42 AM 64.4 °F 60.8 °F 88% 30.02 in 10.0 mi East 10.4 mph - 0.01 in   Overcast
10:51 AM 64.4 °F 60.8 °F 88% 30.02 in 10.0 mi East 11.5 mph - 0.01 in   Overcast
10:54 AM 64.0 °F 60.1 °F 87% 30.02 in 10.0 mi East 11.5 mph - 0.01 in   Overcast
11:08 AM 64.4 °F 60.8 °F 88% 30.02 in 10.0 mi East 10.4 mph - N/A   Overcast
11:54 AM 64.0 °F 60.1 °F 87% 30.02 in 10.0 mi East 8.1 mph - N/A   Overcast
12:16 PM 66.2 °F 62.6 °F 88% 30.01 in 10.0 mi East 6.9 mph - 0.00 in   Mostly Cloudy
12:23 PM 66.2 °F 60.8 °F 83% 30.01 in 10.0 mi East 5.8 mph - 0.00 in   Mostly Cloudy
12:54 PM 64.0 °F 61.0 °F 90% 30.00 in 3.0 mi NE 11.5 mph - 0.04 in Rain Rain
1:03 PM 64.4 °F 62.6 °F 94% 30.00 in 8.0 mi NE 8.1 mph - 0.02 in Rain Light Rain
1:54 PM 64.9 °F 61.0 °F 87% 29.99 in 10.0 mi NE 4.6 mph - 0.02 in Rain Light Rain
2:04 PM 66.2 °F 62.6 °F 88% 29.99 in 10.0 mi North 6.9 mph - 0.00 in Rain Light Rain
2:25 PM 68.0 °F 62.6 °F 83% 29.98 in 10.0 mi NNE 8.1 mph - 0.00 in   Mostly Cloudy
2:54 PM 68.0 °F 61.0 °F 78% 29.98 in 10.0 mi Calm Calm - 0.00 in   Mostly Cloudy
3:54 PM 71.1 °F 61.0 °F 70% 29.95 in 10.0 mi NNE 4.6 mph - N/A   Mostly Cloudy
4:54 PM 73.0 °F 50.0 °F 44% 29.94 in 10.0 mi Calm Calm - N/A   Scattered Clouds
5:54 PM 71.1 °F 48.9 °F 45% 29.94 in 10.0 mi SSW 5.8 mph - N/A Thunderstorm Scattered Clouds
6:15 PM 66.2 °F 55.4 °F 68% 29.95 in 10.0 mi SSW 11.5 mph - 0.00 in Rain Light Rain
6:54 PM 64.9 °F 54.0 °F 68% 29.95 in 10.0 mi SW 4.6 mph - 0.00 in   Scattered Clouds
7:54 PM 64.9 °F 54.0 °F 68% 29.97 in 10.0 mi Calm Calm - N/A   Overcast
8:54 PM 64.0 °F 53.1 °F 67% 29.99 in 10.0 mi Variable 4.6 mph - N/A   Mostly Cloudy
9:54 PM 63.0 °F 51.1 °F 65% 30.01 in 10.0 mi SSW 8.1 mph - 0.00 in Rain Light Rain
10:54 PM 60.1 °F 53.1 °F 78% 30.00 in 10.0 mi Calm Calm - 0.00 in   Mostly Cloudy
11:54 PM 59.0 °F 53.1 °F 81% 30.00 in 10.0 mi SSE 3.5 mph - 0.00 in Rain Light Rain